Location: Most
(50.5133°N, 13.6207°E)
Time: 20:48:06
(UTC+01:00)

ISS - Visible Passes

Search period start: 18 January 2018 00:00
Search period end: 28 January 2018 00:00
Orbit: 402 x 407 km, 51.6° (Epoch: 18 January)

Date Brightness Start Highest point End Pass type
(mag) Time Alt. Az. Time Alt. Az. Time Alt. Az.
26 Jan -1.8 18:54:50 10° SSW 18:56:18 19° S 18:56:18 19° S visible
27 Jan -1.7 18:03:24 10° S 18:05:20 15° SE 18:06:18 13° ESE visible
27 Jan -1.1 19:38:05 10° WSW 19:38:58 17° SW 19:38:58 17° SW visible
